This is the latest recevied weather packets stored in our database for station/object KF0JJO. If no packets are shown the sender has not sent any weather packets the latest 10 day(s).
| Time | Temp. | Humidity | Pressure | Rain* | Wind** | Luminosity | Snow |
|---|---|---|---|---|---|---|---|
| 1777742188 | 15.56° C | 30% | 1048 hPa | 0 mm | - | 179 W/m² | - |
| 1777741886 | 15.56° C | 30% | 1048.2 hPa | 0 mm | - | 161 W/m² | - |
| 1777741583 | 15° C | 29% | 1048.2 hPa | 0 mm | - | 190 W/m² | - |
| 1777741280 | 15.56° C | 28% | 1048.5 hPa | 0 mm | - | 138 W/m² | - |
| 1777740976 | 15° C | 29% | 1048.3 hPa | 0 mm | - | 249 W/m² | - |
| 1777740674 | 15° C | 31% | 1048.4 hPa | 0 mm | - | 403 W/m² | - |
| 1777740369 | 15° C | 31% | 1048.6 hPa | 0 mm | - | 182 W/m² | - |
| 1777740066 | 14.44° C | 30% | 1048.6 hPa | 0 mm | - | 98 W/m² | - |
| 1777739763 | 14.44° C | 30% | 1048.8 hPa | 0 mm | - | 106 W/m² | - |
| 1777739459 | 14.44° C | 31% | 1048.8 hPa | 0 mm | - | 282 W/m² | - |
| 1777739156 | 14.44° C | 30% | 1048.7 hPa | 0 mm | - | 195 W/m² | - |
| 1777738854 | 14.44° C | 31% | 1049 hPa | 0 mm | - | 194 W/m² | - |
| 1777738550 | 13.89° C | 33% | 1048.8 hPa | 0 mm | - | 143 W/m² | - |
| 1777738248 | 13.89° C | 31% | 1049 hPa | 0 mm | - | 110 W/m² | - |
| 1777737946 | 13.89° C | 31% | 1049 hPa | 0 mm | - | 99 W/m² | - |
| 1777737644 | 13.89° C | 31% | 1049.1 hPa | 0 mm | - | 85 W/m² | - |
| 1777737342 | 13.89° C | 33% | 1049.1 hPa | 0 mm | - | 142 W/m² | - |
| 1777737039 | 13.89° C | 32% | 1049.1 hPa | 0 mm | - | 101 W/m² | - |
| 1777736734 | 13.89° C | 34% | 1049.3 hPa | 0 mm | - | 132 W/m² | - |
| 1777736101 | 13.33° C | 35% | 1049.4 hPa | 0 mm | - | 182 W/m² | - |
| 1777735797 | 13.33° C | 34% | 1049.4 hPa | 0 mm | - | 240 W/m² | - |
| 1777735495 | 13.33° C | 34% | 1049.5 hPa | 0 mm | - | 110 W/m² | - |
| 1777735193 | 12.78° C | 36% | 1049.5 hPa | 0 mm | - | 111 W/m² | - |
| 1777734889 | 12.78° C | 36% | 1049.4 hPa | 0 mm | - | 100 W/m² | - |
| 1777734587 | 12.78° C | 35% | 1049.4 hPa | 0 mm | - | 98 W/m² | - |
* Rain latest hour (hover to see other rain measurements)
** Current wind speed in m/s (hover to see current wind gust speed)